This is the latest recevied weather packets stored in our database for station/object N5RPG. If no packets are shown the sender has not sent any weather packets the latest 10 day(s).
| Time | Temp. | Humidity | Pressure | Rain* | Wind** | Luminosity | Snow |
|---|---|---|---|---|---|---|---|
| 1778164529 | 16.67° C | 69% | 1020.3 hPa | 0 mm | - | 308 W/m² | - |
| 1778164227 | 16.11° C | 70% | 1020.2 hPa | 0 mm | - | 371 W/m² | - |
| 1778163921 | 15.56° C | 73% | 1020 hPa | 0 mm | - | 324 W/m² | - |
| 1778163619 | 15.56° C | 72% | 1020.2 hPa | 0 mm | - | 331 W/m² | - |
| 1778163315 | 15.56° C | 76% | 1020.1 hPa | 0 mm | - | 431 W/m² | - |
| 1778163011 | 15° C | 77% | 1020 hPa | 0 mm | - | 398 W/m² | - |
| 1778162709 | 14.44° C | 79% | 1020.2 hPa | 0 mm | - | 316 W/m² | - |
| 1778162406 | 13.89° C | 81% | 1020 hPa | 0 mm | - | 165 W/m² | - |
| 1778162102 | 13.33° C | 82% | 1019.9 hPa | 0 mm | - | 186 W/m² | - |
| 1778161800 | 13.33° C | 82% | 1019.9 hPa | 0 mm | - | 161 W/m² | - |
| 1778161496 | 13.33° C | 83% | 1019.9 hPa | 0 mm | - | 201 W/m² | - |
| 1778161192 | 13.33° C | 83% | 1019.8 hPa | 0 mm | - | 175 W/m² | - |
| 1778160888 | 13.33° C | 84% | 1019.9 hPa | 0 mm | - | 144 W/m² | - |
| 1778160587 | 12.78° C | 85% | 1019.9 hPa | 0 mm | - | 146 W/m² | - |
| 1778160282 | 12.78° C | 85% | 1019.9 hPa | 0 mm | - | 108 W/m² | - |
| 1778159979 | 12.78° C | 86% | 1020 hPa | 0 mm | - | 105 W/m² | - |
| 1778159676 | 12.78° C | 86% | 1020 hPa | 0 mm | - | 53 W/m² | - |
| 1778159373 | 12.22° C | 87% | 1020.2 hPa | 0 mm | - | 133 W/m² | - |
| 1778159070 | 12.22° C | 88% | 1020.3 hPa | 0 mm | - | 102 W/m² | - |
| 1778158769 | 12.22° C | 89% | 1020.2 hPa | 0 mm | - | 75 W/m² | - |
| 1778158467 | 11.67° C | 89% | 1020.1 hPa | 0 mm | - | 74 W/m² | - |
| 1778158164 | 11.67° C | 90% | 1020.1 hPa | 0 mm | - | 36 W/m² | - |
| 1778157860 | 11.67° C | 90% | 1019.8 hPa | 0 mm | - | 82 W/m² | - |
| 1778157558 | 11.67° C | 91% | 1019.9 hPa | 0 mm | - | 42 W/m² | - |
| 1778157255 | 11.67° C | 92% | 1019.8 hPa | 0 mm | - | 39 W/m² | - |
* Rain latest hour (hover to see other rain measurements)
** Current wind speed in m/s (hover to see current wind gust speed)